Station NABM4 - Naubinway, MI Image indicating link to RSS feed of recent meteorological observations for station NABM4


Conditions at NABM4 as of
(4:40 am EDT)
0840 GMT on 07/23/2024:
     

Click on the graph icon in the table below to see a time series plot of the last five days of that observation.

5-day plot - Wind Direction Wind Direction (WDIR): N ( 350 deg true )
5-day plot - Wind Speed Wind Speed (WSPD): 5.1 kts
5-day plot - Wind Gust Wind Gust (GST): 7.0 kts
5-day plot - Atmospheric Pressure Atmospheric Pressure (PRES):29.97 in
5-day plot - Air Temperature Air Temperature (ATMP): 62.2 °F
5-day plot - Wind Speed at 10 Meters Wind Speed at 10 meters (WSPD10M): 5.8 kts
5-day plot - Wind Speed at 20 Meters Wind Speed at 20 meters (WSPD20M): 5.8 kts
5-day plot -  Wind Speed, Wind Gust and Atmospheric Pressure Combined plot of Wind Speed, Gust, and Air Pressure
Previous observations
TIME
(EDT)
5-day plot - Wind Direction
WDIR
 
5-day plot - Wind Speed
WSPD
kts
5-day plot - Wind Gust
GST
kts
5-day plot - Wave Height
WVHT
ft
5-day plot - Dominant Wave Period
DPD
sec
5-day plot - Average Wave Period
APD
sec
5-day plot - Mean Wave Direction
MWD
 
5-day plot - Atmospheric Pressure
PRES
in
5-day plot - Pressure Tendency
PTDY
in
5-day plot - Air Temperature
ATMP
°F
5-day plot - Water Temperature
WTMP
°F
5-day plot - Dew Point
DEWP
°F
5-day plot - Salinity
SAL
psu
5-day plot - Visibility
VIS
nmi
5-day plot - Tide (above MLLW)
TIDE
ft
2024-07-23 04:30 am N 5.1 6.0----29.97- 62.4-----
2024-07-23 04:20 am N 1.9 5.1----29.97- 62.2-----
2024-07-23 04:10 am N 4.1 5.1----29.97- 62.1-----
2024-07-23 04:00 am N 2.9 5.1----29.97-0.01 62.1-----
2024-07-23 03:50 amNNE 4.1 6.0----29.97- 62.2-----
2024-07-23 03:40 amNNE 4.1 5.1----29.97- 62.1-----
2024-07-23 03:30 amNNE 2.9 5.1----29.97- 62.1-----
2024-07-23 03:20 amNNE 4.1 5.1----29.97- 62.1-----
2024-07-23 03:10 amNNE 5.1 6.0----29.97- 62.2-----
2024-07-23 03:00 am N 2.9 5.1----29.97-0.01 62.4-----
2024-07-23 02:50 am N 2.9 5.1----29.97- 62.6-----
2024-07-23 02:40 am N 4.1 5.1----29.97- 62.6-----
2024-07-23 02:30 am N 4.1 5.1----29.97- 62.8-----
2024-07-23 02:20 am N 1.9 4.1----29.97- 62.8-----
2024-07-23 02:10 amNNW 4.1 4.1----29.98- 62.8-----
2024-07-23 02:00 am N 1.9 4.1----29.98+0.00 62.6-----
2024-07-23 01:50 am N 1.9 2.9----29.98- 62.2-----
2024-07-23 01:40 am N 1.9 2.9----29.98- 62.4-----
2024-07-23 01:30 am N 1.9 4.1----29.98- 62.6-----
2024-07-23 01:20 amNNE 2.9 5.1----29.98- 63.0-----
2024-07-23 01:10 am NE 5.1 6.0----29.98- 62.8-----
2024-07-23 01:00 am N 5.1 7.0----29.98+0.01 63.0-----
2024-07-23 12:50 am N 4.1 5.1----29.98- 63.3-----
2024-07-23 12:40 amNNE 4.1 4.1----29.98- 63.9-----
2024-07-23 12:30 amNNE 4.1 4.1----29.98- 64.0-----
2024-07-23 12:20 amNNE 2.9 4.1----29.98- 64.2-----
2024-07-23 12:10 amNNE 4.1 5.1----29.98- 64.4-----
2024-07-23 12:00 am NE 2.9 5.1----29.98+0.02 64.9-----
2024-07-22 11:50 pm NE 1.9 1.9----29.98- 64.8-----
2024-07-22 11:40 pmNNE 1.9 4.1----29.98- 64.6-----
2024-07-22 11:30 pmNNE 2.9 4.1----29.97- 64.8-----
2024-07-22 11:20 pmNNE 4.1 4.1----29.98- 65.1-----
2024-07-22 11:10 pmNNE 4.1 4.1----29.98- 65.5-----
2024-07-22 11:00 pm NE 1.9 2.9----29.98+0.02 65.5-----
2024-07-22 10:50 pmNNE 2.9 2.9----29.98- 65.5-----
2024-07-22 10:40 pmNNE 1.9 2.9----29.98- 65.8-----
2024-07-22 10:30 pmNNE 1.9 2.9----29.98- 66.0-----
2024-07-22 10:20 pm N 1.9 4.1----29.98- 66.2-----
2024-07-22 10:10 pmNNE 4.1 4.1----29.98- 66.6-----
2024-07-22 10:00 pmNNE 4.1 4.1----29.97+0.01 67.1-----
2024-07-22 09:50 pmNNE 2.9 4.1----29.97- 67.5-----
2024-07-22 09:40 pm N 2.9 4.1----29.97- 67.6-----
2024-07-22 09:30 pmNNE 4.1 7.0----29.97- 68.5-----
2024-07-22 09:20 pm N 4.1 5.1----29.97- 67.8-----
2024-07-22 09:10 pm NE 1.0 2.9----29.97- 68.9-----
2024-07-22 09:00 pmENE 1.9 1.9----29.96+0.00 68.9-----
2024-07-22 08:50 pmWNW 1.0 2.9----29.96- 70.5-----
2024-07-22 08:40 pm W 1.9 2.9----29.96- 70.7-----
2024-07-22 08:30 pm- 0.0 4.1----29.96- 70.9-----
2024-07-22 08:20 pm NE 4.1 5.1----29.96- 70.5-----
2024-07-22 08:10 pm NW 2.9 4.1----29.96- 70.3-----
2024-07-22 08:00 pm W 2.9 6.0----29.96-0.02 70.9-----
2024-07-22 07:50 pm W 2.9 5.1----29.96- 71.2-----
2024-07-22 07:40 pm W 1.9 4.1----29.95- 70.9-----
2024-07-22 07:30 pm W 1.9 5.1----29.96- 71.2-----
2024-07-22 07:20 pm W 2.9 6.0----29.96- 71.8-----
2024-07-22 07:10 pm W 1.9 6.0----29.96- 72.0-----
2024-07-22 07:00 pm W 2.9 7.0----29.96-0.03 71.6-----
2024-07-22 06:50 pmWSW 1.9 5.1----29.95- 72.7-----
2024-07-22 06:40 pm W 4.1 5.1----29.95- 72.9-----
2024-07-22 06:30 pm SW 2.9 5.1----29.96- 71.8-----
2024-07-22 06:20 pm SW 4.1 6.0----29.96- 71.4-----
2024-07-22 06:10 pm SW 5.1 6.0----29.96- 71.6-----
2024-07-22 06:00 pm SW 5.1 6.0----29.96-0.04 71.8-----
2024-07-22 05:50 pm SW 4.1 5.1----29.96- 72.3-----
2024-07-22 05:40 pm S 1.9 2.9----29.97- 72.9-----
2024-07-22 05:30 pm S 1.9 4.1----29.97- 71.8-----
2024-07-22 05:20 pm S 2.9 5.1----29.97- 72.0-----
2024-07-22 05:10 pmSSW 4.1 5.1----29.97- 72.9-----
2024-07-22 05:00 pmSSW 1.9 2.9----29.98-0.03 72.9-----
2024-07-22 04:50 pmSSW 2.9 4.1----29.98- 72.0-----
2024-07-22 04:40 pm S 2.9 5.1----29.98- 70.9-----
2024-07-22 04:30 pm S 4.1 5.1----29.98- 70.9-----
2024-07-22 04:20 pm S 4.1 6.0----29.99- 71.2-----
2024-07-22 04:10 pm S 5.1 6.0----29.99- 71.4-----
2024-07-22 04:00 pm S 5.1 6.0----29.99-0.03 72.1-----
2024-07-22 03:50 pmSSW 6.0 7.0----30.00- 71.1-----
2024-07-22 03:40 pmSSW 7.0 8.9----30.00- 70.9-----
2024-07-22 03:30 pmSSW 8.0 9.9----30.00- 70.0-----
2024-07-22 03:20 pmSSW 8.0 8.9----30.00- 70.9-----
2024-07-22 03:10 pm S 8.0 8.9----30.00- 70.5-----
2024-07-22 03:00 pm S 7.0 8.9----30.00-0.03 69.6-----
2024-07-22 02:50 pm S 8.0 9.9----30.00- 69.8-----
2024-07-22 02:40 pm S 8.9 8.9----30.00- 69.1-----
2024-07-22 02:30 pm S 8.9 9.9----30.00- 68.5-----
2024-07-22 02:20 pm S 9.9 11.1----30.01- 68.2-----
2024-07-22 02:10 pm S 8.9 11.1----30.01- 68.0-----
2024-07-22 02:00 pm S 8.9 9.9----30.01-0.04 67.6-----
2024-07-22 01:50 pm S 8.0 8.9----30.01- 67.8-----
2024-07-22 01:40 pm S 8.0 8.9----30.02- 67.8-----
2024-07-22 01:30 pm S 8.0 8.9----30.02- 67.5-----
2024-07-22 01:20 pm S 8.0 9.9----30.02- 67.5-----
2024-07-22 01:10 pm S 8.9 9.9----30.02- 67.3-----
2024-07-22 01:00 pm S 8.9 9.9----30.02-0.03 67.3-----
2024-07-22 12:50 pm S 8.9 8.9----30.03- 67.1-----
2024-07-22 12:40 pm S 8.9 9.9----30.03- 66.7-----
2024-07-22 12:30 pm S 8.9 8.9----30.03- 66.7-----
2024-07-22 12:20 pm S 7.0 8.0----30.03- 66.7-----
2024-07-22 12:10 pm S 6.0 7.0----30.03- 66.9-----
2024-07-22 12:00 pm S 5.1 6.0----30.03-0.03 66.7-----
2024-07-22 11:50 am S 6.0 7.0----30.04- 66.7-----
2024-07-22 11:40 am S 5.1 6.0----30.05- 66.7-----
2024-07-22 11:30 am S 6.0 6.0----30.05- 66.6-----
2024-07-22 11:20 am S 5.1 6.0----30.05- 66.7-----
2024-07-22 11:10 am S 6.0 6.0----30.05- 66.4-----
2024-07-22 11:00 am S 4.1 5.1----30.05-0.01 67.1-----
2024-07-22 10:50 amSSE 4.1 4.1----30.05- 67.6-----
2024-07-22 10:40 amSSE 4.1 6.0----30.11- 67.5-----
2024-07-22 10:30 amSSE 6.0 6.0----30.05- 67.3-----
2024-07-22 10:20 amSSE 4.1 4.1----30.05- 67.3-----
2024-07-22 10:10 am SE 2.9 2.9----30.05- 68.9-----
2024-07-22 10:00 am E 1.0 1.9----30.05+0.00 70.0-----
2024-07-22 09:50 am E 1.9 2.9----30.05- 68.7-----
2024-07-22 09:40 amENE 1.9 2.9----30.05- 68.0-----
2024-07-22 09:30 amENE 2.9 2.9----30.06- 67.3-----
2024-07-22 09:20 amENE 2.9 2.9----30.06- 66.9-----
2024-07-22 09:10 amENE 1.9 2.9----30.06- 66.4-----
2024-07-22 09:00 amENE 2.9 4.1----30.06+0.03 64.8-----
2024-07-22 08:50 am NE 4.1 5.1----30.06- 63.1-----
2024-07-22 08:40 am NE 4.1 4.1----30.06- 62.6-----
2024-07-22 08:30 am NE 2.9 4.1----30.06- 61.7-----
2024-07-22 08:20 am NE 2.9 4.1----30.06- 60.8-----
2024-07-22 08:10 amNNE 2.9 4.1----30.05- 60.3-----
2024-07-22 08:00 amNNE 2.9 4.1----30.06+0.01 59.7-----
2024-07-22 07:50 amNNE 2.9 4.1----30.06- 59.4-----
2024-07-22 07:40 amNNE 2.9 4.1----30.05- 58.5-----
2024-07-22 07:30 amNNE 2.9 4.1----30.05- 57.6-----
2024-07-22 07:20 am N 2.9 4.1----30.06- 56.5-----
2024-07-22 07:10 am N 2.9 2.9----30.05- 55.9-----
2024-07-22 07:00 am N 2.9 2.9----30.05-0.02 54.7-----
2024-07-22 06:50 am N 2.9 2.9----30.05- 53.8-----
2024-07-22 06:40 am N 1.9 1.9----30.04- 53.4-----
2024-07-22 06:30 am N 1.0 1.9----30.04- 53.2-----
2024-07-22 06:20 am N 1.0 1.9----30.04- 53.4-----
2024-07-22 06:10 am N 1.9 2.9----30.04- 53.2-----
2024-07-22 06:00 am N 1.9 2.9----30.03-0.05 53.6-----
2024-07-22 05:50 am N 1.9 2.9----30.04- 53.6-----
2024-07-22 05:40 am N 1.9 2.9----30.04- 53.8-----
2024-07-22 05:30 am N 1.9 1.9----30.04- 54.0-----
2024-07-22 05:20 am N 1.9 2.9----30.04- 53.4-----
2024-07-22 05:10 am N 1.9 2.9----30.05- 54.1-----
2024-07-22 05:00 amNNW 1.9 2.9----30.05-0.05 54.0-----
2024-07-22 04:50 am N 1.9 1.9----30.05- 53.6-----